| time (UTC) | temp C | wind direction | speed KPH | gust KPH | rain 1hr cm | rain 24hr cm | rain mn cm | humidity % | barometer mb |
| 20260904201005 | 26 | 324 | 0.0 | 0.0 | 0.38 | 0.38 | 0.38 | 92 | 1013.6 |
| 20260904200502 | 26 | 326 | 0.0 | 1.6 | 0.38 | 0.38 | 0.38 | 91 | 1013.9 |
| 20260904200002 | 26 | 326 | 0.0 | 3.2 | 0.38 | 0.48 | 0.38 | 90 | 1014.2 |
| 20260904195502 | 26 | 87 | 0.0 | 3.2 | 0.36 | 0.46 | 0.36 | 89 | 1014.3 |
| 20260904195002 | 26 | 358 | 0.0 | 1.6 | 0.36 | 0.46 | 0.36 | 90 | 1014.4 |
| 20260904194501 | 27 | 161 | 0.0 | 0.0 | 0.30 | 0.41 | 0.30 | 90 | 1014.6 |
| 20260904194100 | 27 | 309 | 0.0 | 0.0 | 0.28 | 0.38 | 0.28 | 89 | 1014.6 |
| 20260904193602 | 28 | 349 | 0.0 | 0.0 | 0.23 | 0.33 | 0.23 | 89 | 1014.7 |
| 20260904193059 | 28 | 3 | 0.0 | 0.0 | 0.10 | 0.20 | 0.10 | 87 | 1014.7 |
| 20260904192559 | 28 | 228 | 0.0 | 1.6 | 0.00 | 0.10 | 0.00 | 87 | 1014.7 |
| 20260904192057 | 29 | 189 | 0.0 | 1.6 | 0.00 | 0.10 | 0.00 | 86 | 1014.5 |
| 20260904191557 | 29 | 194 | 0.0 | 1.6 | 0.00 | 0.10 | 0.00 | 86 | 1014.3 |
| 20260904191056 | 29 | 158 | 0.0 | 4.8 | 0.00 | 0.10 | 0.00 | 86 | 1014.3 |
| 20260904190556 | 30 | 110 | 0.0 | 8.0 | 0.00 | 0.10 | 0.00 | 85 | 1014.5 |
| 20260904190057 | 30 | 208 | 0.0 | 8.0 | 0.00 | 0.10 | 0.00 | 85 | 1014.4 |
| 20260904185554 | 30 | 311 | 0.0 | 4.8 | 0.00 | 0.10 | 0.00 | 84 | 1014.4 |
| 20260904185053 | 31 | 136 | 0.0 | 4.8 | 0.00 | 0.10 | 0.00 | 84 | 1014.5 |
| 20260904184553 | 30 | 176 | 0.0 | 1.6 | 0.00 | 0.10 | 0.00 | 86 | 1014.5 |
| 20260904184053 | 30 | 156 | 0.0 | 4.8 | 0.00 | 0.10 | 0.00 | 85 | 1014.5 |
| 20260904183552 | 30 | 153 | 0.0 | 6.4 | 0.00 | 0.10 | 0.00 | 85 | 1014.5 |
| 20260904183052 | 31 | 311 | 0.0 | 6.4 | 0.00 | 0.10 | 0.00 | 84 | 1014.6 |
| 20260904182551 | 31 | 309 | 0.0 | 9.7 | 0.00 | 0.10 | 0.00 | 83 | 1014.7 |
| 20260904182050 | 31 | 347 | 0.0 | 9.7 | 0.00 | 0.10 | 0.00 | 82 | 1014.8 |
| 20260904181554 | 31 | 322 | 0.0 | 4.8 | 0.00 | 0.10 | 0.00 | 82 | 1014.8 |
| 20260904181048 | 32 | 169 | 0.0 | 6.4 | 0.00 | 0.10 | 0.00 | 81 | 1014.9 |
| 20260904180550 | 32 | 30 | 1.6 | 6.4 | 0.00 | 0.10 | 0.00 | 77 | 1014.8 |
| 20260904180047 | 33 | 93 | 0.0 | 3.2 | 0.00 | 0.10 | 0.00 | 72 | 1014.6 |
| 20260904175544 | 33 | 70 | 0.0 | 4.8 | 0.00 | 0.10 | 0.00 | 73 | 1014.6 |
| 20260904175043 | 33 | 177 | 0.0 | 4.8 | 0.00 | 0.10 | 0.00 | 73 | 1014.7 |
| 20260904174547 | 33 | 101 | 0.0 | 3.2 | 0.00 | 0.10 | 0.00 | 75 | 1014.6 |
| 20260904174039 | 32 | 174 | 0.0 | 1.6 | 0.00 | 0.10 | 0.00 | 80 | 1014.6 |
| 20260904173541 | 32 | 128 | 0.0 | 1.6 | 0.00 | 0.10 | 0.00 | 80 | 1014.8 |
| 20260904173036 | 32 | 171 | 0.0 | 3.2 | 0.00 | 0.10 | 0.00 | 80 | 1014.9 |
| 20260904172537 | 32 | 306 | 0.0 | 3.2 | 0.00 | 0.10 | 0.00 | 78 | 1015.0 |
| 20260904172034 | 32 | 188 | 0.0 | 1.6 | 0.00 | 0.10 | 0.00 | 81 | 1015.0 |
| 20260904171542 | 32 | 139 | 0.0 | 1.6 | 0.00 | 0.10 | 0.00 | 80 | 1015.2 |
| 20260904171031 | 31 | 254 | 0.0 | 1.6 | 0.00 | 0.10 | 0.00 | 83 | 1015.2 |
| 20260904170531 | 31 | 278 | 0.0 | 0.0 | 0.00 | 0.10 | 0.00 | 82 | 1015.2 |
| 20260904170029 | 31 | 278 | 0.0 | 0.0 | 0.00 | 0.10 | 0.00 | 82 | 1015.4 |
| 20260904165531 | 31 | 278 | 0.0 | 1.6 | 0.00 | 0.18 | 0.00 | 81 | 1015.5 |
| 20260904165028 | 32 | 163 | 0.0 | 1.6 | 0.00 | 0.18 | 0.00 | 78 | 1015.6 |
| 20260904164527 | 32 | 91 | 0.0 | 0.0 | 0.00 | 0.18 | 0.00 | 79 | 1015.6 |
| 20260904164025 | 31 | 310 | 0.0 | 0.0 | 0.00 | 0.18 | 0.00 | 80 | 1015.7 |
| 20260904163524 | 31 | 301 | 0.0 | 0.0 | 0.00 | 0.18 | 0.00 | 80 | 1015.8 |
| 20260904163029 | 31 | 150 | 0.0 | 3.2 | 0.00 | 0.18 | 0.00 | 82 | 1015.8 |
| 20260904162524 | 31 | 120 | 0.0 | 0.0 | 0.00 | 0.18 | 0.00 | 83 | 1015.8 |
| 20260904162023 | 31 | 229 | 0.0 | 1.6 | 0.00 | 0.18 | 0.00 | 83 | 1015.9 |
| 20260904161527 | 31 | 255 | 0.0 | 0.0 | 0.00 | 0.18 | 0.00 | 81 | 1016.0 |
| 20260904161018 | 31 | 114 | 0.0 | 3.2 | 0.00 | 0.18 | 0.00 | 82 | 1016.0 |
| 20260904160517 | 31 | 134 | 0.0 | 3.2 | 0.00 | 0.18 | 0.00 | 82 | 1016.1 |
| 20260904160017 | 31 | 217 | 0.0 | 3.2 | 0.00 | 0.18 | 0.00 | 83 | 1016.2 |
| 20260904155515 | 30 | 130 | 0.0 | 3.2 | 0.00 | 0.58 | 0.00 | 83 | 1016.3 |
| 20260904155013 | 30 | 150 | 0.0 | 1.6 | 0.00 | 0.58 | 0.00 | 83 | 1016.3 |
| 20260904154512 | 30 | 189 | 0.0 | 1.6 | 0.00 | 0.58 | 0.00 | 84 | 1016.2 |
| 20260904154010 | 30 | 78 | 0.0 | 1.6 | 0.00 | 0.58 | 0.00 | 83 | 1016.2 |
| 20260904153510 | 30 | 327 | 0.0 | 0.0 | 0.00 | 0.58 | 0.00 | 84 | 1016.1 |
| 20260904153008 | 30 | 135 | 0.0 | 4.8 | 0.00 | 0.58 | 0.00 | 85 | 1016.0 |
| 20260904152507 | 30 | 130 | 0.0 | 4.8 | 0.00 | 0.58 | 0.00 | 84 | 1016.2 |
| 20260904152005 | 30 | 231 | 0.0 | 0.0 | 0.00 | 0.58 | 0.00 | 85 | 1016.2 |
| 20260904151505 | 30 | 257 | 0.0 | 0.0 | 0.00 | 0.58 | 0.00 | 85 | 1016.2 |
| 20260904151003 | 30 | 333 | 0.0 | 0.0 | 0.00 | 0.58 | 0.00 | 84 | 1016.0 |
| 20260904150502 | 29 | 97 | 0.0 | 0.0 | 0.00 | 0.58 | 0.00 | 86 | 1016.0 |
| 20260904150100 | 29 | 141 | 0.0 | 0.0 | 0.00 | 0.58 | 0.00 | 85 | 1015.9 |
| 20260904145556 | 29 | 103 | 0.0 | 1.6 | 0.00 | 0.66 | 0.00 | 86 | 1016.0 |
| 20260904145055 | 28 | 233 | 0.0 | 1.6 | 0.00 | 0.66 | 0.00 | 86 | 1015.9 |
| 20260904144555 | 28 | 229 | 0.0 | 1.6 | 0.00 | 0.66 | 0.00 | 88 | 1015.9 |
| 20260904144054 | 28 | 316 | 0.0 | 1.6 | 0.00 | 0.66 | 0.00 | 88 | 1015.9 |
| 20260904143552 | 28 | 203 | 0.0 | 1.6 | 0.00 | 0.66 | 0.00 | 88 | 1016.0 |
| 20260904143049 | 28 | 248 | 0.0 | 3.2 | 0.00 | 0.66 | 0.00 | 88 | 1015.9 |
| 20260904142551 | 28 | 278 | 0.0 | 3.2 | 0.00 | 0.66 | 0.00 | 88 | 1015.9 |
| 20260904142047 | 28 | 246 | 0.0 | 0.0 | 0.00 | 0.66 | 0.00 | 89 | 1015.8 |
| 20260904141545 | 27 | 246 | 0.0 | 0.0 | 0.00 | 0.66 | 0.00 | 89 | 1015.8 |
| 20260904141042 | 27 | 250 | 0.0 | 0.0 | 0.00 | 0.66 | 0.00 | 90 | 1015.8 |
| 20260904140541 | 27 | 122 | 0.0 | 3.2 | 0.00 | 0.66 | 0.00 | 91 | 1015.7 |
| 20260904140039 | 27 | 288 | 0.0 | 3.2 | 0.00 | 0.66 | 0.00 | 91 | 1015.7 |
| 20260904135637 | 27 | 138 | 0.0 | 1.6 | 0.00 | 0.66 | 0.00 | 93 | 1015.8 |
| 20260904135035 | 27 | 157 | 0.0 | 1.6 | 0.00 | 0.66 | 0.00 | 94 | 1015.7 |
| 20260904134535 | 26 | 232 | 0.0 | 1.6 | 0.00 | 0.66 | 0.00 | 95 | 1015.7 |
| 20260904134031 | 26 | 160 | 0.0 | 1.6 | 0.00 | 0.66 | 0.00 | 95 | 1015.7 |
| 20260904133531 | 26 | 134 | 0.0 | 1.6 | 0.00 | 0.66 | 0.00 | 95 | 1015.7 |
| 20260904133030 | 26 | 134 | 0.0 | 1.6 | 0.00 | 0.66 | 0.00 | 95 | 1015.6 |
| 20260904132529 | 26 | 122 | 0.0 | 1.6 | 0.00 | 0.66 | 0.00 | 96 | 1015.6 |
| 20260904132027 | 26 | 153 | 0.0 | 0.0 | 0.00 | 0.66 | 0.00 | 96 | 1015.7 |
| 20260904131527 | 26 | 314 | 0.0 | 0.0 | 0.00 | 0.66 | 0.00 | 96 | 1015.6 |
| 20260904131026 | 26 | 314 | 0.0 | 0.0 | 0.00 | 0.66 | 0.00 | 96 | 1015.7 |
| 20260904130532 | 26 | 259 | 0.0 | 0.0 | 0.00 | 0.66 | 0.00 | 96 | 1015.7 |
| 20260904130025 | 26 | 259 | 0.0 | 0.0 | 0.00 | 0.66 | 0.00 | 96 | 1015.7 |
| 20260904125525 | 26 | 259 | 0.0 | 0.0 | 0.00 | 0.66 | 0.00 | 96 | 1015.7 |
| 20260904125024 | 26 | 258 | 0.0 | 0.0 | 0.00 | 0.66 | 0.00 | 96 | 1015.7 |
| 20260904124522 | 26 | 259 | 0.0 | 0.0 | 0.00 | 0.66 | 0.00 | 96 | 1015.5 |
| 20260904124019 | 25 | 258 | 0.0 | 0.0 | 0.00 | 0.66 | 0.00 | 96 | 1015.5 |
| 20260904123517 | 25 | 259 | 0.0 | 0.0 | 0.00 | 0.66 | 0.00 | 96 | 1015.4 |
| 20260904123017 | 25 | 259 | 0.0 | 0.0 | 0.00 | 0.66 | 0.00 | 96 | 1015.4 |
| 20260904122516 | 25 | 259 | 0.0 | 0.0 | 0.00 | 0.66 | 0.00 | 96 | 1015.3 |
| 20260904122015 | 25 | 258 | 0.0 | 0.0 | 0.00 | 0.66 | 0.00 | 96 | 1015.3 |
| 20260904121513 | 25 | 259 | 0.0 | 0.0 | 0.00 | 0.66 | 0.00 | 96 | 1015.2 |
| 20260904121012 | 25 | 258 | 0.0 | 0.0 | 0.00 | 0.66 | 0.00 | 96 | 1015.3 |
| 20260904120509 | 25 | 258 | 0.0 | 0.0 | 0.00 | 0.66 | 0.00 | 96 | 1015.2 |
| 20260904120109 | 25 | 259 | 0.0 | 0.0 | 0.00 | 0.66 | 0.00 | 96 | 1015.1 |
| 20260904115509 | 25 | 259 | 0.0 | 0.0 | 0.00 | 0.66 | 0.00 | 96 | 1015.1 |
| 20260904115008 | 24 | 259 | 0.0 | 0.0 | 0.00 | 0.66 | 0.00 | 95 | 1015.0 |
| 20260904114507 | 24 | 258 | 0.0 | 0.0 | 0.00 | 0.66 | 0.00 | 95 | 1015.1 |
| 20260904114007 | 24 | 258 | 0.0 | 0.0 | 0.00 | 0.66 | 0.00 | 95 | 1015.0 |
| 20260904113505 | 24 | 258 | 0.0 | 0.0 | 0.00 | 0.66 | 0.00 | 95 | 1015.0 |
| 20260904113009 | 24 | 258 | 0.0 | 0.0 | 0.00 | 0.66 | 0.00 | 95 | 1014.9 |
| 20260904112503 | 24 | 258 | 0.0 | 0.0 | 0.00 | 0.66 | 0.00 | 95 | 1014.8 |
| 20260904112003 | 24 | 258 | 0.0 | 0.0 | 0.00 | 0.66 | 0.00 | 95 | 1014.8 |
| 20260904111505 | 24 | 258 | 0.0 | 0.0 | 0.00 | 0.66 | 0.00 | 95 | 1014.8 |
| 20260904111002 | 24 | 258 | 0.0 | 0.0 | 0.00 | 0.66 | 0.00 | 95 | 1014.8 |
| 20260904110502 | 24 | 258 | 0.0 | 0.0 | 0.00 | 0.66 | 0.00 | 95 | 1014.7 |
| 20260904110002 | 24 | 258 | 0.0 | 0.0 | 0.00 | 0.66 | 0.00 | 95 | 1014.7 |
| 20260904105503 | 24 | 258 | 0.0 | 0.0 | 0.00 | 0.66 | 0.00 | 95 | 1014.6 |
| 20260904105101 | 24 | 258 | 0.0 | 0.0 | 0.00 | 0.66 | 0.00 | 95 | 1014.7 |
| 20260904104606 | 24 | 258 | 0.0 | 0.0 | 0.00 | 0.66 | 0.00 | 95 | 1014.6 |
| 20260904104059 | 24 | 259 | 0.0 | 0.0 | 0.00 | 0.66 | 0.00 | 95 | 1014.6 |
| 20260904103557 | 24 | 258 | 0.0 | 0.0 | 0.00 | 0.66 | 0.00 | 95 | 1014.6 |
| 20260904103109 | 24 | 259 | 0.0 | 0.0 | 0.00 | 0.66 | 0.00 | 95 | 1014.5 |
| 20260904102557 | 24 | 259 | 0.0 | 0.0 | 0.00 | 0.66 | 0.00 | 95 | 1014.5 |
| 20260904102056 | 24 | 258 | 0.0 | 0.0 | 0.00 | 0.66 | 0.00 | 95 | 1014.5 |
| 20260904101556 | 24 | 258 | 0.0 | 0.0 | 0.00 | 0.66 | 0.00 | 95 | 1014.5 |
| 20260904101054 | 24 | 258 | 0.0 | 0.0 | 0.00 | 0.66 | 0.00 | 95 | 1014.4 |
| 20260904100554 | 24 | 259 | 0.0 | 0.0 | 0.00 | 0.66 | 0.00 | 95 | 1014.5 |
| 20260904100054 | 23 | 258 | 0.0 | 0.0 | 0.00 | 0.66 | 0.00 | 95 | 1014.4 |
| 20260904095553 | 24 | 258 | 0.0 | 0.0 | 0.00 | 0.66 | 0.00 | 95 | 1014.5 |
| 20260904095052 | 24 | 258 | 0.0 | 0.0 | 0.00 | 0.66 | 0.00 | 95 | 1014.4 |
| 20260904094552 | 24 | 258 | 0.0 | 0.0 | 0.00 | 0.66 | 0.00 | 95 | 1014.4 |
| 20260904094050 | 24 | 258 | 0.0 | 0.0 | 0.00 | 0.66 | 0.00 | 95 | 1014.2 |
| 20260904093550 | 24 | 258 | 0.0 | 0.0 | 0.00 | 0.66 | 0.00 | 95 | 1014.2 |
| 20260904093049 | 24 | 258 | 0.0 | 0.0 | 0.00 | 0.66 | 0.00 | 95 | 1014.2 |
| 20260904092548 | 24 | 259 | 0.0 | 0.0 | 0.00 | 0.66 | 0.00 | 95 | 1014.2 |
| 20260904092050 | 24 | 258 | 0.0 | 0.0 | 0.00 | 0.66 | 0.00 | 95 | 1014.1 |
| 20260904091603 | 24 | 258 | 0.0 | 0.0 | 0.00 | 0.66 | 0.00 | 95 | 1014.2 |
| 20260904091050 | 24 | 258 | 0.0 | 0.0 | 0.00 | 0.66 | 0.00 | 95 | 1014.1 |
| 20260904090546 | 24 | 259 | 0.0 | 0.0 | 0.00 | 0.66 | 0.00 | 95 | 1014.1 |
| 20260904090045 | 24 | 258 | 0.0 | 0.0 | 0.00 | 0.66 | 0.00 | 95 | 1014.1 |
| 20260904085544 | 24 | 258 | 0.0 | 0.0 | 0.00 | 0.66 | 0.00 | 95 | 1014.1 |
| 20260904085047 | 24 | 259 | 0.0 | 0.0 | 0.00 | 0.66 | 0.00 | 95 | 1014.1 |
| 20260904084544 | 24 | 259 | 0.0 | 0.0 | 0.00 | 0.66 | 0.00 | 95 | 1014.1 |
| 20260904084042 | 24 | 258 | 0.0 | 0.0 | 0.00 | 0.66 | 0.00 | 95 | 1014.1 |
| 20260904083542 | 24 | 259 | 0.0 | 0.0 | 0.00 | 0.66 | 0.00 | 95 | 1014.0 |
| 20260904083102 | 24 | 258 | 0.0 | 0.0 | 0.00 | 0.66 | 0.00 | 95 | 1014.0 |
| 20260904082540 | 24 | 259 | 0.0 | 0.0 | 0.00 | 0.66 | 0.00 | 95 | 1014.0 |
| 20260904082043 | 24 | 258 | 0.0 | 0.0 | 0.00 | 0.66 | 0.00 | 95 | 1014.0 |
| 20260904081539 | 24 | 258 | 0.0 | 0.0 | 0.00 | 0.66 | 0.00 | 95 | 1014.1 |
| 20260904081038 | 24 | 259 | 0.0 | 0.0 | 0.00 | 0.66 | 0.00 | 95 | 1014.1 |
| 20260904080538 | 24 | 258 | 0.0 | 0.0 | 0.00 | 0.66 | 0.00 | 95 | 1014.1 |
| 20260904080037 | 24 | 258 | 0.0 | 0.0 | 0.00 | 0.66 | 0.00 | 95 | 1014.1 |
| 20260904075538 | 24 | 258 | 0.0 | 0.0 | 0.00 | 0.66 | 0.00 | 95 | 1014.1 |
| 20260904075040 | 24 | 259 | 0.0 | 0.0 | 0.00 | 0.66 | 0.00 | 95 | 1014.1 |
| 20260904074558 | 24 | 258 | 0.0 | 0.0 | 0.00 | 0.66 | 0.00 | 95 | 1014.1 |
| 20260904074034 | 24 | 258 | 0.0 | 0.0 | 0.00 | 0.66 | 0.00 | 95 | 1014.0 |
| 20260904073534 | 24 | 258 | 0.0 | 0.0 | 0.00 | 0.66 | 0.00 | 95 | 1014.1 |
| 20260904073036 | 24 | 258 | 0.0 | 0.0 | 0.00 | 0.66 | 0.00 | 95 | 1014.1 |
| 20260904072533 | 24 | 258 | 0.0 | 0.0 | 0.00 | 0.66 | 0.00 | 95 | 1014.1 |
| 20260904072032 | 24 | 259 | 0.0 | 0.0 | 0.00 | 0.66 | 0.00 | 95 | 1014.1 |
| 20260904071531 | 24 | 258 | 0.0 | 0.0 | 0.00 | 0.66 | 0.00 | 95 | 1014.2 |
| 20260904071035 | 24 | 259 | 0.0 | 0.0 | 0.00 | 0.66 | 0.00 | 95 | 1014.0 |
| 20260904070530 | 24 | 258 | 0.0 | 0.0 | 0.00 | 0.66 | 0.00 | 95 | 1014.1 |
| 20260904070029 | 24 | 258 | 0.0 | 0.0 | 0.00 | 0.66 | 0.00 | 95 | 1014.1 |
| 20260904065533 | 24 | 259 | 0.0 | 0.0 | 0.00 | 0.66 | 0.00 | 95 | 1014.2 |
| 20260904065029 | 24 | 259 | 0.0 | 0.0 | 0.00 | 0.66 | 0.00 | 95 | 1014.2 |
| 20260904064534 | 24 | 258 | 0.0 | 0.0 | 0.00 | 0.66 | 0.00 | 95 | 1014.2 |
| 20260904064026 | 24 | 258 | 0.0 | 0.0 | 0.00 | 0.66 | 0.00 | 95 | 1014.1 |
| 20260904063526 | 24 | 258 | 0.0 | 0.0 | 0.00 | 0.66 | 0.00 | 95 | 1014.1 |
| 20260904063025 | 24 | 259 | 0.0 | 0.0 | 0.00 | 0.66 | 0.00 | 95 | 1014.2 |
| 20260904062528 | 24 | 258 | 0.0 | 0.0 | 0.00 | 0.66 | 0.00 | 95 | 1014.2 |
| 20260904062022 | 24 | 259 | 0.0 | 0.0 | 0.00 | 0.66 | 0.00 | 95 | 1014.2 |
| 20260904061527 | 24 | 259 | 0.0 | 0.0 | 0.00 | 0.66 | 0.00 | 95 | 1014.3 |
| 20260904061021 | 24 | 259 | 0.0 | 0.0 | 0.00 | 0.66 | 0.00 | 95 | 1014.3 |
| 20260904060520 | 24 | 259 | 0.0 | 0.0 | 0.00 | 0.66 | 0.00 | 95 | 1014.4 |
| 20260904060024 | 24 | 259 | 0.0 | 0.0 | 0.00 | 0.66 | 0.00 | 95 | 1014.5 |
| 20260904055516 | 24 | 258 | 0.0 | 0.0 | 0.00 | 0.66 | 0.00 | 94 | 1014.5 |
| 20260904055016 | 24 | 259 | 0.0 | 0.0 | 0.00 | 0.66 | 0.00 | 94 | 1014.5 |
| 20260904054516 | 24 | 259 | 0.0 | 0.0 | 0.00 | 0.66 | 0.00 | 94 | 1014.6 |
| 20260904054014 | 24 | 259 | 0.0 | 0.0 | 0.00 | 0.66 | 0.00 | 94 | 1014.7 |
| 20260904053515 | 25 | 259 | 0.0 | 0.0 | 0.00 | 0.66 | 0.00 | 95 | 1014.8 |
| 20260904053017 | 25 | 258 | 0.0 | 0.0 | 0.00 | 0.66 | 0.00 | 95 | 1014.7 |
| 20260904052510 | 25 | 259 | 0.0 | 0.0 | 0.00 | 0.66 | 0.00 | 95 | 1015.0 |
| 20260904052010 | 25 | 258 | 0.0 | 0.0 | 0.00 | 0.66 | 0.00 | 94 | 1015.0 |
| 20260904051510 | 25 | 258 | 0.0 | 0.0 | 0.00 | 0.66 | 0.00 | 94 | 1014.8 |
| 20260904051008 | 25 | 259 | 0.0 | 0.0 | 0.00 | 0.66 | 0.00 | 94 | 1014.9 |
| 20260904050506 | 25 | 259 | 0.0 | 0.0 | 0.00 | 0.66 | 0.00 | 94 | 1015.1 |
| 20260904050006 | 25 | 259 | 0.0 | 0.0 | 0.00 | 0.66 | 0.00 | 94 | 1015.1 |
| 20260904045505 | 25 | 258 | 0.0 | 0.0 | 0.00 | 0.66 | 0.00 | 94 | 1015.2 |
| 20260904045005 | 25 | 258 | 0.0 | 0.0 | 0.00 | 0.66 | 0.00 | 94 | 1015.2 |
| 20260904044503 | 25 | 258 | 0.0 | 0.0 | 0.00 | 0.66 | 0.00 | 94 | 1015.2 |
| 20260904044003 | 25 | 258 | 0.0 | 0.0 | 0.00 | 0.66 | 0.00 | 94 | 1015.2 |
| 20260904043501 | 25 | 258 | 0.0 | 0.0 | 0.00 | 0.66 | 0.00 | 94 | 1015.2 |
| 20260904043002 | 25 | 258 | 0.0 | 0.0 | 0.00 | 0.66 | 0.00 | 94 | 1015.2 |
| 20260904042603 | 25 | 258 | 0.0 | 0.0 | 0.00 | 0.66 | 0.00 | 94 | 1015.2 |
| 20260904042100 | 25 | 259 | 0.0 | 0.0 | 0.00 | 0.66 | 0.00 | 94 | 1015.1 |
| 20260904041605 | 25 | 258 | 0.0 | 0.0 | 0.00 | 0.66 | 0.00 | 94 | 1015.1 |
| 20260904041058 | 24 | 258 | 0.0 | 0.0 | 0.00 | 0.66 | 0.00 | 94 | 1015.2 |
| 20260904040555 | 24 | 258 | 0.0 | 0.0 | 0.00 | 0.66 | 0.00 | 94 | 1015.2 |
| 20260904040107 | 24 | 258 | 0.0 | 0.0 | 0.00 | 0.66 | 0.00 | 94 | 1015.2 |
| 20260904035554 | 25 | 258 | 0.0 | 0.0 | 0.00 | 0.66 | 0.66 | 94 | 1015.1 |
| 20260904035053 | 25 | 258 | 0.0 | 0.0 | 0.00 | 0.66 | 0.66 | 94 | 1015.2 |
| 20260904034556 | 24 | 258 | 0.0 | 0.0 | 0.00 | 0.66 | 0.66 | 94 | 1015.1 |
| 20260904034051 | 24 | 259 | 0.0 | 0.0 | 0.00 | 0.66 | 0.66 | 94 | 1015.1 |
| 20260904033550 | 25 | 259 | 0.0 | 0.0 | 0.00 | 0.66 | 0.66 | 94 | 1015.0 |
| 20260904033049 | 25 | 258 | 0.0 | 0.0 | 0.00 | 0.66 | 0.66 | 94 | 1014.9 |
| 20260904032552 | 25 | 258 | 0.0 | 0.0 | 0.00 | 0.66 | 0.66 | 94 | 1015.0 |
| 20260904032049 | 25 | 259 | 0.0 | 0.0 | 0.00 | 0.66 | 0.66 | 94 | 1015.1 |
| 20260904031550 | 25 | 258 | 0.0 | 0.0 | 0.00 | 0.66 | 0.66 | 94 | 1015.0 |
| 20260904031047 | 25 | 258 | 0.0 | 0.0 | 0.00 | 0.66 | 0.66 | 94 | 1015.1 |
| 20260904030548 | 25 | 259 | 0.0 | 0.0 | 0.00 | 0.66 | 0.66 | 93 | 1015.1 |
| 20260904030046 | 25 | 258 | 0.0 | 0.0 | 0.00 | 0.66 | 0.66 | 93 | 1015.1 |
| 20260904025546 | 25 | 259 | 0.0 | 0.0 | 0.00 | 0.66 | 0.66 | 93 | 1015.0 |
| 20260904025046 | 25 | 258 | 0.0 | 0.0 | 0.00 | 0.66 | 0.66 | 93 | 1015.1 |
| 20260904024546 | 25 | 258 | 0.0 | 0.0 | 0.00 | 0.66 | 0.66 | 93 | 1015.0 |
| 20260904024048 | 25 | 258 | 0.0 | 0.0 | 0.00 | 0.66 | 0.66 | 93 | 1014.9 |
| 20260904023542 | 25 | 259 | 0.0 | 0.0 | 0.00 | 0.66 | 0.66 | 93 | 1014.9 |
| 20260904023048 | 25 | 259 | 0.0 | 0.0 | 0.00 | 0.66 | 0.66 | 93 | 1014.8 |
| 20260904022541 | 25 | 259 | 0.0 | 0.0 | 0.00 | 0.66 | 0.66 | 93 | 1014.8 |
| 20260904022042 | 25 | 258 | 0.0 | 0.0 | 0.00 | 0.66 | 0.66 | 93 | 1014.7 |
| 20260904021639 | 25 | 259 | 0.0 | 0.0 | 0.00 | 0.66 | 0.66 | 93 | 1014.8 |
| 20260904021039 | 25 | 259 | 0.0 | 0.0 | 0.00 | 0.66 | 0.66 | 93 | 1014.9 |
| 20260904020538 | 25 | 258 | 0.0 | 0.0 | 0.00 | 0.66 | 0.66 | 93 | 1014.9 |
| 20260904020039 | 25 | 259 | 0.0 | 0.0 | 0.00 | 0.66 | 0.66 | 93 | 1014.8 |
| 20260904015536 | 25 | 258 | 0.0 | 0.0 | 0.00 | 0.66 | 0.66 | 93 | 1014.9 |
| 20260904015037 | 25 | 258 | 0.0 | 0.0 | 0.00 | 0.66 | 0.66 | 93 | 1015.0 |
| 20260904014551 | 25 | 258 | 0.0 | 0.0 | 0.00 | 0.66 | 0.66 | 93 | 1014.9 |
| 20260904014035 | 25 | 258 | 0.0 | 0.0 | 0.00 | 0.66 | 0.66 | 93 | 1014.8 |
| 20260904013535 | 25 | 258 | 0.0 | 0.0 | 0.00 | 0.66 | 0.66 | 92 | 1014.8 |
| 20260904013039 | 25 | 258 | 0.0 | 0.0 | 0.00 | 0.66 | 0.66 | 92 | 1014.7 |
| 20260904012533 | 25 | 258 | 0.0 | 0.0 | 0.00 | 0.66 | 0.66 | 92 | 1014.8 |
| 20260904012032 | 25 | 258 | 0.0 | 0.0 | 0.00 | 0.66 | 0.66 | 92 | 1014.8 |
| 20260904011532 | 25 | 258 | 0.0 | 0.0 | 0.00 | 0.66 | 0.66 | 91 | 1014.8 |
| 20260904011031 | 25 | 258 | 0.0 | 0.0 | 0.00 | 0.66 | 0.66 | 92 | 1014.7 |
| 20260904010531 | 25 | 258 | 0.0 | 0.0 | 0.00 | 0.66 | 0.66 | 91 | 1014.8 |
| 20260904010031 | 25 | 258 | 0.0 | 0.0 | 0.00 | 0.66 | 0.66 | 91 | 1014.8 |
| 20260904005533 | 25 | 258 | 0.0 | 0.0 | 0.00 | 0.66 | 0.66 | 91 | 1014.6 |
| 20260904005029 | 25 | 258 | 0.0 | 0.0 | 0.00 | 0.66 | 0.66 | 91 | 1014.5 |
| 20260904004528 | 25 | 258 | 0.0 | 0.0 | 0.00 | 0.66 | 0.66 | 90 | 1014.4 |
| 20260904004028 | 25 | 258 | 0.0 | 0.0 | 0.00 | 0.66 | 0.66 | 90 | 1014.5 |
| 20260904003531 | 25 | 258 | 0.0 | 0.0 | 0.00 | 0.66 | 0.66 | 90 | 1014.5 |
| 20260904003026 | 25 | 258 | 0.0 | 0.0 | 0.00 | 0.66 | 0.66 | 90 | 1014.3 |
| 20260904002525 | 26 | 258 | 0.0 | 0.0 | 0.00 | 0.66 | 0.66 | 90 | 1014.4 |
| 20260904002026 | 26 | 258 | 0.0 | 0.0 | 0.00 | 0.66 | 0.66 | 89 | 1014.4 |
| 20260904001528 | 26 | 258 | 0.0 | 0.0 | 0.00 | 0.66 | 0.66 | 89 | 1014.4 |
| 20260904001023 | 26 | 258 | 0.0 | 0.0 | 0.00 | 0.66 | 0.66 | 89 | 1014.4 |
| 20260904000526 | 26 | 258 | 0.0 | 0.0 | 0.00 | 0.66 | 0.66 | 89 | 1014.4 |
| 20260904000023 | 26 | 268 | 0.0 | 0.0 | 0.00 | 0.66 | 0.66 | 89 | 1014.4 |
| 20260903235522 | 26 | 178 | 0.0 | 0.0 | 0.00 | 0.66 | 0.66 | 89 | 1014.4 |
| 20260903235022 | 26 | 128 | 0.0 | 0.0 | 0.00 | 0.66 | 0.66 | 89 | 1014.3 |
| 20260903234522 | 26 | 128 | 0.0 | 0.0 | 0.00 | 0.66 | 0.66 | 88 | 1014.2 |
| 20260903234021 | 26 | 347 | 0.0 | 0.0 | 0.00 | 0.66 | 0.66 | 88 | 1014.2 |
| 20260903233521 | 27 | 347 | 0.0 | 0.0 | 0.00 | 0.66 | 0.66 | 88 | 1014.0 |
| 20260903233021 | 27 | 350 | 0.0 | 0.0 | 0.00 | 0.66 | 0.66 | 88 | 1014.1 |
| 20260903232519 | 27 | 350 | 0.0 | 0.0 | 0.00 | 0.66 | 0.66 | 87 | 1014.2 |
| 20260903232019 | 27 | 348 | 0.0 | 0.0 | 0.00 | 0.66 | 0.66 | 87 | 1014.1 |
| 20260903231518 | 27 | 321 | 0.0 | 0.0 | 0.00 | 0.66 | 0.66 | 87 | 1014.0 |
| 20260903231017 | 27 | 323 | 0.0 | 0.0 | 0.00 | 0.66 | 0.66 | 87 | 1014.1 |
| 20260903230517 | 27 | 323 | 0.0 | 0.0 | 0.00 | 0.66 | 0.66 | 87 | 1014.3 |
| 20260903230016 | 28 | 323 | 0.0 | 0.0 | 0.00 | 0.66 | 0.66 | 87 | 1014.3 |
| 20260903225518 | 28 | 323 | 0.0 | 0.0 | 0.00 | 0.66 | 0.66 | 87 | 1014.1 |
| 20260903225018 | 28 | 323 | 0.0 | 0.0 | 0.00 | 0.66 | 0.66 | 87 | 1013.9 |
| 20260903224515 | 28 | 323 | 0.0 | 0.0 | 0.00 | 0.66 | 0.66 | 86 | 1013.9 |
| 20260903224016 | 28 | 321 | 0.0 | 0.0 | 0.00 | 0.66 | 0.66 | 86 | 1013.9 |
| 20260903223513 | 28 | 321 | 0.0 | 0.0 | 0.00 | 0.66 | 0.66 | 86 | 1013.8 |
| 20260903223011 | 28 | 308 | 0.0 | 0.0 | 0.00 | 0.66 | 0.66 | 86 | 1013.7 |
| 20260903222515 | 28 | 308 | 0.0 | 0.0 | 0.00 | 0.66 | 0.66 | 87 | 1013.7 |
| 20260903222013 | 28 | 308 | 0.0 | 0.0 | 0.00 | 0.66 | 0.66 | 87 | 1013.6 |
| 20260903221512 | 28 | 308 | 0.0 | 0.0 | 0.00 | 0.66 | 0.66 | 88 | 1013.5 |
| 20260903221010 | 27 | 308 | 0.0 | 0.0 | 0.00 | 0.66 | 0.66 | 88 | 1013.4 |
| 20260903220513 | 27 | 308 | 0.0 | 0.0 | 0.00 | 0.66 | 0.66 | 88 | 1013.5 |
| 20260903220012 | 27 | 308 | 0.0 | 0.0 | 0.00 | 0.66 | 0.66 | 88 | 1013.5 |
| 20260903215510 | 27 | 308 | 0.0 | 0.0 | 0.00 | 0.76 | 0.66 | 88 | 1013.5 |
| 20260903215010 | 27 | 308 | 0.0 | 0.0 | 0.00 | 0.76 | 0.66 | 88 | 1013.5 |
| 20260903214512 | 27 | 308 | 0.0 | 0.0 | 0.00 | 0.76 | 0.66 | 88 | 1013.4 |
| 20260903214016 | 27 | 308 | 0.0 | 0.0 | 0.00 | 0.76 | 0.66 | 88 | 1013.3 |
| 20260903213508 | 27 | 308 | 0.0 | 0.0 | 0.00 | 0.76 | 0.66 | 88 | 1013.5 |
| 20260903213006 | 27 | 308 | 0.0 | 0.0 | 0.00 | 0.76 | 0.66 | 89 | 1013.5 |
| 20260903212507 | 27 | 308 | 0.0 | 0.0 | 0.00 | 0.76 | 0.66 | 88 | 1013.3 |
| 20260903212009 | 27 | 308 | 0.0 | 0.0 | 0.00 | 0.76 | 0.66 | 88 | 1013.2 |
| 20260903211504 | 27 | 308 | 0.0 | 0.0 | 0.00 | 0.76 | 0.66 | 88 | 1013.1 |
| 20260903211004 | 27 | 308 | 0.0 | 0.0 | 0.00 | 0.76 | 0.66 | 88 | 1013.2 |
| 20260903210502 | 27 | 225 | 0.0 | 0.0 | 0.00 | 0.76 | 0.66 | 88 | 1013.3 |
| 20260903210002 | 27 | 89 | 0.0 | 0.0 | 0.00 | 0.79 | 0.66 | 88 | 1013.3 |
| 20260903205559 | 27 | 46 | 0.0 | 0.0 | 0.00 | 0.79 | 0.66 | 89 | 1013.5 |
| 20260903205059 | 27 | 347 | 0.0 | 0.0 | 0.00 | 0.79 | 0.66 | 89 | 1013.6 |
| 20260903204558 | 27 | 4 | 0.0 | 0.0 | 0.00 | 0.79 | 0.66 | 88 | 1013.7 |
| 20260903204058 | 27 | 308 | 0.0 | 0.0 | 0.00 | 0.79 | 0.66 | 88 | 1013.8 |
| 20260903203557 | 27 | 125 | 0.0 | 0.0 | 0.00 | 0.79 | 0.66 | 88 | 1013.8 |
| 20260903203106 | 27 | 265 | 0.0 | 0.0 | 0.00 | 0.79 | 0.66 | 89 | 1013.7 |
| 20260903202555 | 27 | 324 | 0.0 | 0.0 | 0.03 | 0.79 | 0.66 | 89 | 1013.7 |
| 20260903202057 | 27 | 297 | 0.0 | 0.0 | 0.10 | 0.79 | 0.66 | 90 | 1013.8 |
| 20260903201554 | 27 | 297 | 0.0 | 0.0 | 0.10 | 0.79 | 0.66 | 90 | 1013.9 |